Aviation Digital Data Service (ADDS)

Output produced by METARs form (1000 UTC 23 July 2019)
found at http://www.aviationweather.gov/metar/data/
 
METAR text: OISS 230930Z 07008KT 6000 SCT040 39/M04 Q1009 A2982
Conditions at: OISS (SHIRAZ (CIV/AFB), IR) observed 0930 UTC 23 July 2019
Temperature: 39.0°C (102°F)
Dewpoint: -4.0°C (25°F) [RH =  7%]
Pressure (altimeter): 29.79 inches Hg (1009.0 mb)
Winds: from the ENE (70 degrees) at 9 MPH (8 knots; 4.1 m/s)
Visibility: 4 miles ( 6 km)
Ceiling: at least 12,000 feet AGL
Clouds: scattered clouds at 4000 feet AGL
Weather: no significant weather observed at this time

METAR text: OISS 230920Z 07008KT 6000 SCT040 39/M04 Q1009 A2982
Conditions at: OISS (SHIRAZ (CIV/AFB), IR) observed 0920 UTC 23 July 2019
Temperature: 39.0°C (102°F)
Dewpoint: -4.0°C (25°F) [RH =  7%]
Pressure (altimeter): 29.79 inches Hg (1009.0 mb)
Winds: from the ENE (70 degrees) at 9 MPH (8 knots; 4.1 m/s)
Visibility: 4 miles ( 6 km)
Ceiling: at least 12,000 feet AGL
Clouds: scattered clouds at 4000 feet AGL
Weather: no significant weather observed at this time

METAR text: OISS 230900Z 10006KT 5000 HZ SCT040 38/02 Q1010 A2983
Conditions at: OISS (SHIRAZ (CIV/AFB), IR) observed 0900 UTC 23 July 2019
Temperature: 38.0°C (100°F)
Dewpoint: 2.0°C (36°F) [RH = 11%]
Pressure (altimeter): 29.82 inches Hg (1010.0 mb)
Winds: from the E (100 degrees) at 7 MPH (6 knots; 3.1 m/s)
Visibility: 3 miles ( 5 km)
Ceiling: at least 12,000 feet AGL
Clouds: scattered clouds at 4000 feet AGL
Weather: HZ  (haze)

METAR text: OISS 230850Z 10006KT 5000 HZ SCT040 38/02 Q1010 A2983 NOSIG
Conditions at: OISS (SHIRAZ (CIV/AFB), IR) observed 0850 UTC 23 July 2019
Temperature: 38.0°C (100°F)
Dewpoint: 2.0°C (36°F) [RH = 11%]
Pressure (altimeter): 29.82 inches Hg (1010.0 mb)
Winds: from the E (100 degrees) at 7 MPH (6 knots; 3.1 m/s)
Visibility: 3 miles ( 5 km)
Ceiling: at least 12,000 feet AGL
Clouds: scattered clouds at 4000 feet AGL
Weather: HZ  (haze)

METAR text: OISS 230830Z 17008KT 5000 HZ FEW040 38/01 Q1010 A2983
Conditions at: OISS (SHIRAZ (CIV/AFB), IR) observed 0830 UTC 23 July 2019
Temperature: 38.0°C (100°F)
Dewpoint: 1.0°C (34°F) [RH = 10%]
Pressure (altimeter): 29.82 inches Hg (1010.0 mb)
Winds: from the S (170 degrees) at 9 MPH (8 knots; 4.1 m/s)
Visibility: 3 miles ( 5 km)
Ceiling: at least 12,000 feet AGL
Clouds: few clouds at 4000 feet AGL
Weather: HZ  (haze)

METAR text: OISS 230820Z 17008KT 5000 HZ FEW040 38/01 Q1010 A2983
Conditions at: OISS (SHIRAZ (CIV/AFB), IR) observed 0820 UTC 23 July 2019
Temperature: 38.0°C (100°F)
Dewpoint: 1.0°C (34°F) [RH = 10%]
Pressure (altimeter): 29.82 inches Hg (1010.0 mb)
Winds: from the S (170 degrees) at 9 MPH (8 knots; 4.1 m/s)
Visibility: 3 miles ( 5 km)
Ceiling: at least 12,000 feet AGL
Clouds: few clouds at 4000 feet AGL
Weather: HZ  (haze)

METAR text: OISS 230800Z 14004KT 5000 HZ FEW040 37/M01 Q1010 A2984
Conditions at: OISS (SHIRAZ (CIV/AFB), IR) observed 0800 UTC 23 July 2019
Temperature: 37.0°C (99°F)
Dewpoint: -1.0°C (30°F) [RH =  9%]
Pressure (altimeter): 29.82 inches Hg (1010.0 mb)
Winds: from the SE (140 degrees) at 5 MPH (4 knots; 2.1 m/s)
Visibility: 3 miles ( 5 km)
Ceiling: at least 12,000 feet AGL
Clouds: few clouds at 4000 feet AGL
Weather: HZ  (haze)

METAR text: OISS 230750Z 14004KT 5000 HZ FEW040 37/M01 Q1010 A2984 NOSIG
Conditions at: OISS (SHIRAZ (CIV/AFB), IR) observed 0750 UTC 23 July 2019
Temperature: 37.0°C (99°F)
Dewpoint: -1.0°C (30°F) [RH =  9%]
Pressure (altimeter): 29.82 inches Hg (1010.0 mb)
Winds: from the SE (140 degrees) at 5 MPH (4 knots; 2.1 m/s)
Visibility: 3 miles ( 5 km)
Ceiling: at least 12,000 feet AGL
Clouds: few clouds at 4000 feet AGL
Weather: HZ  (haze)

METAR text: OISS 230730Z 11006KT 5000 HZ FEW040 38/01 Q1010 A2985
Conditions at: OISS (SHIRAZ (CIV/AFB), IR) observed 0730 UTC 23 July 2019
Temperature: 38.0°C (100°F)
Dewpoint: 1.0°C (34°F) [RH = 10%]
Pressure (altimeter): 29.82 inches Hg (1010.0 mb)
Winds: from the ESE (110 degrees) at 7 MPH (6 knots; 3.1 m/s)
Visibility: 3 miles ( 5 km)
Ceiling: at least 12,000 feet AGL
Clouds: few clouds at 4000 feet AGL
Weather: HZ  (haze)

METAR text: OISS 230720Z 11006KT 5000 HZ FEW040 38/01 Q1010 A2985
Conditions at: OISS (SHIRAZ (CIV/AFB), IR) observed 0720 UTC 23 July 2019
Temperature: 38.0°C (100°F)
Dewpoint: 1.0°C (34°F) [RH = 10%]
Pressure (altimeter): 29.82 inches Hg (1010.0 mb)
Winds: from the ESE (110 degrees) at 7 MPH (6 knots; 3.1 m/s)
Visibility: 3 miles ( 5 km)
Ceiling: at least 12,000 feet AGL
Clouds: few clouds at 4000 feet AGL
Weather: HZ  (haze)

METAR text: OISS 230700Z 00000KT 6000 FEW040 37/M01 Q1011 A2986
Conditions at: OISS (SHIRAZ (CIV/AFB), IR) observed 0700 UTC 23 July 2019
Temperature: 37.0°C (99°F)
Dewpoint: -1.0°C (30°F) [RH =  9%]
Pressure (altimeter): 29.85 inches Hg (1011.0 mb)
Winds: calm
Visibility: 4 miles ( 6 km)
Ceiling: at least 12,000 feet AGL
Clouds: few clouds at 4000 feet AGL
Weather: no significant weather observed at this time

METAR text: OISS 230650Z 00000KT 6000 FEW040 37/M01 Q1011 A2986 TEMPO 5000 DU
Conditions at: OISS (SHIRAZ (CIV/AFB), IR) observed 0650 UTC 23 July 2019
Temperature: 37.0°C (99°F)
Dewpoint: -1.0°C (30°F) [RH =  9%]
Pressure (altimeter): 29.85 inches Hg (1011.0 mb)
Winds: calm
Visibility: 4 miles ( 6 km)
Ceiling: at least 12,000 feet AGL
Clouds: few clouds at 4000 feet AGL
Weather: no significant weather observed at this time

METAR text: OISS 230630Z 10004KT 6000 FEW040 37/M03 Q1011 A2987
Conditions at: OISS (SHIRAZ (CIV/AFB), IR) observed 0630 UTC 23 July 2019
Temperature: 37.0°C (99°F)
Dewpoint: -3.0°C (27°F) [RH =  8%]
Pressure (altimeter): 29.85 inches Hg (1011.0 mb)
Winds: from the E (100 degrees) at 5 MPH (4 knots; 2.1 m/s)
Visibility: 4 miles ( 6 km)
Ceiling: at least 12,000 feet AGL
Clouds: few clouds at 4000 feet AGL
Weather: no significant weather observed at this time

METAR text: OISS 230620Z 10004KT 6000 FEW040 37/M03 Q1011 A2987
Conditions at: OISS (SHIRAZ (CIV/AFB), IR) observed 0620 UTC 23 July 2019
Temperature: 37.0°C (99°F)
Dewpoint: -3.0°C (27°F) [RH =  8%]
Pressure (altimeter): 29.85 inches Hg (1011.0 mb)
Winds: from the E (100 degrees) at 5 MPH (4 knots; 2.1 m/s)
Visibility: 4 miles ( 6 km)
Ceiling: at least 12,000 feet AGL
Clouds: few clouds at 4000 feet AGL
Weather: no significant weather observed at this time

METAR text: OISS 230600Z 17004KT 6000 FEW040 36/02 Q1011 A2987
Conditions at: OISS (SHIRAZ (CIV/AFB), IR) observed 0600 UTC 23 July 2019
Temperature: 36.0°C (97°F)
Dewpoint: 2.0°C (36°F) [RH = 12%]
Pressure (altimeter): 29.85 inches Hg (1011.0 mb)
Winds: from the S (170 degrees) at 5 MPH (4 knots; 2.1 m/s)
Visibility: 4 miles ( 6 km)
Ceiling: at least 12,000 feet AGL
Clouds: few clouds at 4000 feet AGL
Weather: no significant weather observed at this time

METAR text: OISS 230550Z 17004KT 6000 FEW040 36/02 Q1011 A2987
Conditions at: OISS (SHIRAZ (CIV/AFB), IR) observed 0550 UTC 23 July 2019
Temperature: 36.0°C (97°F)
Dewpoint: 2.0°C (36°F) [RH = 12%]
Pressure (altimeter): 29.85 inches Hg (1011.0 mb)
Winds: from the S (170 degrees) at 5 MPH (4 knots; 2.1 m/s)
Visibility: 4 miles ( 6 km)
Ceiling: at least 12,000 feet AGL
Clouds: few clouds at 4000 feet AGL
Weather: no significant weather observed at this time

METAR text: OISS 230530Z 10004KT 6000 NSC 36/M02 Q1011 A2987
Conditions at: OISS (SHIRAZ (CIV/AFB), IR) observed 0530 UTC 23 July 2019
Temperature: 36.0°C (97°F)
Dewpoint: -2.0°C (28°F) [RH =  9%]
Pressure (altimeter): 29.85 inches Hg (1011.0 mb)
Winds: from the E (100 degrees) at 5 MPH (4 knots; 2.1 m/s)
Visibility: 4 miles ( 6 km)
Ceiling: at least 12,000 feet AGL
Clouds: sky clear below 12,000 feet AGL
Weather: no significant weather observed at this time

METAR text: OISS 230520Z 10004KT 6000 NSC 36/M02 Q1011 A2987
Conditions at: OISS (SHIRAZ (CIV/AFB), IR) observed 0520 UTC 23 July 2019
Temperature: 36.0°C (97°F)
Dewpoint: -2.0°C (28°F) [RH =  9%]
Pressure (altimeter): 29.85 inches Hg (1011.0 mb)
Winds: from the E (100 degrees) at 5 MPH (4 knots; 2.1 m/s)
Visibility: 4 miles ( 6 km)
Ceiling: at least 12,000 feet AGL
Clouds: sky clear below 12,000 feet AGL
Weather: no significant weather observed at this time

METAR text: OISS 230500Z 00000KT 6000 NSC 36/02 Q1011 A2987
Conditions at: OISS (SHIRAZ (CIV/AFB), IR) observed 0500 UTC 23 July 2019
Temperature: 36.0°C (97°F)
Dewpoint: 2.0°C (36°F) [RH = 12%]
Pressure (altimeter): 29.85 inches Hg (1011.0 mb)
Winds: calm
Visibility: 4 miles ( 6 km)
Ceiling: at least 12,000 feet AGL
Clouds: sky clear below 12,000 feet AGL
Weather: no significant weather observed at this time

METAR text: OISS 230450Z 00000KT 6000 NSC 36/02 Q1011 A2987
Conditions at: OISS (SHIRAZ (CIV/AFB), IR) observed 0450 UTC 23 July 2019
Temperature: 36.0°C (97°F)
Dewpoint: 2.0°C (36°F) [RH = 12%]
Pressure (altimeter): 29.85 inches Hg (1011.0 mb)
Winds: calm
Visibility: 4 miles ( 6 km)
Ceiling: at least 12,000 feet AGL
Clouds: sky clear below 12,000 feet AGL
Weather: no significant weather observed at this time

METAR text: OISS 230430Z 00000KT 6000 NSC 34/03 Q1011 A2987
Conditions at: OISS (SHIRAZ (CIV/AFB), IR) observed 0430 UTC 23 July 2019
Temperature: 34.0°C (93°F)
Dewpoint: 3.0°C (37°F) [RH = 14%]
Pressure (altimeter): 29.85 inches Hg (1011.0 mb)
Winds: calm
Visibility: 4 miles ( 6 km)
Ceiling: at least 12,000 feet AGL
Clouds: sky clear below 12,000 feet AGL
Weather: no significant weather observed at this time

METAR text: OISS 230420Z 00000KT 6000 NSC 34/03 Q1011 A2987
Conditions at: OISS (SHIRAZ (CIV/AFB), IR) observed 0420 UTC 23 July 2019
Temperature: 34.0°C (93°F)
Dewpoint: 3.0°C (37°F) [RH = 14%]
Pressure (altimeter): 29.85 inches Hg (1011.0 mb)
Winds: calm
Visibility: 4 miles ( 6 km)
Ceiling: at least 12,000 feet AGL
Clouds: sky clear below 12,000 feet AGL
Weather: no significant weather observed at this time

METAR text: OISS 230400Z 00000KT 8000 NSC 32/07 Q1011 A2987
Conditions at: OISS (SHIRAZ (CIV/AFB), IR) observed 0400 UTC 23 July 2019
Temperature: 32.0°C (90°F)
Dewpoint: 7.0°C (45°F) [RH = 21%]
Pressure (altimeter): 29.85 inches Hg (1011.0 mb)
Winds: calm
Visibility: 5 miles ( 8 km)
Ceiling: at least 12,000 feet AGL
Clouds: sky clear below 12,000 feet AGL
Weather: no significant weather observed at this time

METAR text: OISS 230350Z 00000KT 8000 NSC 32/07 Q1011 A2987 NOSIG
Conditions at: OISS (SHIRAZ (CIV/AFB), IR) observed 0350 UTC 23 July 2019
Temperature: 32.0°C (90°F)
Dewpoint: 7.0°C (45°F) [RH = 21%]
Pressure (altimeter): 29.85 inches Hg (1011.0 mb)
Winds: calm
Visibility: 5 miles ( 8 km)
Ceiling: at least 12,000 feet AGL
Clouds: sky clear below 12,000 feet AGL
Weather: no significant weather observed at this time

METAR text: OISS 230330Z 00000KT 8000 NSC 30/08 Q1011 A2986
Conditions at: OISS (SHIRAZ (CIV/AFB), IR) observed 0330 UTC 23 July 2019
Temperature: 30.0°C (86°F)
Dewpoint: 8.0°C (46°F) [RH = 25%]
Pressure (altimeter): 29.85 inches Hg (1011.0 mb)
Winds: calm
Visibility: 5 miles ( 8 km)
Ceiling: at least 12,000 feet AGL
Clouds: sky clear below 12,000 feet AGL
Weather: no significant weather observed at this time

METAR text: OISS 230320Z 00000KT 8000 NSC 30/08 Q1011 A2986
Conditions at: OISS (SHIRAZ (CIV/AFB), IR) observed 0320 UTC 23 July 2019
Temperature: 30.0°C (86°F)
Dewpoint: 8.0°C (46°F) [RH = 25%]
Pressure (altimeter): 29.85 inches Hg (1011.0 mb)
Winds: calm
Visibility: 5 miles ( 8 km)
Ceiling: at least 12,000 feet AGL
Clouds: sky clear below 12,000 feet AGL
Weather: no significant weather observed at this time

METAR text: OISS 230300Z 29004KT 8000 NSC 27/08 Q1011 A2987
Conditions at: OISS (SHIRAZ (CIV/AFB), IR) observed 0300 UTC 23 July 2019
Temperature: 27.0°C (81°F)
Dewpoint: 8.0°C (46°F) [RH = 30%]
Pressure (altimeter): 29.85 inches Hg (1011.0 mb)
Winds: from the WNW (290 degrees) at 5 MPH (4 knots; 2.1 m/s)
Visibility: 5 miles ( 8 km)
Ceiling: at least 12,000 feet AGL
Clouds: sky clear below 12,000 feet AGL
Weather: no significant weather observed at this time

METAR text: OISS 230250Z 29004KT 8000 NSC 27/08 Q1011 A2987 NOSIG
Conditions at: OISS (SHIRAZ (CIV/AFB), IR) observed 0250 UTC 23 July 2019
Temperature: 27.0°C (81°F)
Dewpoint: 8.0°C (46°F) [RH = 30%]
Pressure (altimeter): 29.85 inches Hg (1011.0 mb)
Winds: from the WNW (290 degrees) at 5 MPH (4 knots; 2.1 m/s)
Visibility: 5 miles ( 8 km)
Ceiling: at least 12,000 feet AGL
Clouds: sky clear below 12,000 feet AGL
Weather: no significant weather observed at this time

METAR text: OISS 230230Z 00000KT 8000 NSC 28/05 Q1010 A2985
Conditions at: OISS (SHIRAZ (CIV/AFB), IR) observed 0230 UTC 23 July 2019
Temperature: 28.0°C (82°F)
Dewpoint: 5.0°C (41°F) [RH = 23%]
Pressure (altimeter): 29.82 inches Hg (1010.0 mb)
Winds: calm
Visibility: 5 miles ( 8 km)
Ceiling: at least 12,000 feet AGL
Clouds: sky clear below 12,000 feet AGL
Weather: no significant weather observed at this time

METAR text: OISS 230220Z 00000KT 8000 NSC 28/05 Q1010 A2985
Conditions at: OISS (SHIRAZ (CIV/AFB), IR) observed 0220 UTC 23 July 2019
Temperature: 28.0°C (82°F)
Dewpoint: 5.0°C (41°F) [RH = 23%]
Pressure (altimeter): 29.82 inches Hg (1010.0 mb)
Winds: calm
Visibility: 5 miles ( 8 km)
Ceiling: at least 12,000 feet AGL
Clouds: sky clear below 12,000 feet AGL
Weather: no significant weather observed at this time

METAR text: OISS 230200Z 00000KT 8000 NSC 28/05 Q1010 A2984
Conditions at: OISS (SHIRAZ (CIV/AFB), IR) observed 0200 UTC 23 July 2019
Temperature: 28.0°C (82°F)
Dewpoint: 5.0°C (41°F) [RH = 23%]
Pressure (altimeter): 29.82 inches Hg (1010.0 mb)
Winds: calm
Visibility: 5 miles ( 8 km)
Ceiling: at least 12,000 feet AGL
Clouds: sky clear below 12,000 feet AGL
Weather: no significant weather observed at this time

METAR text: OISS 230150Z 00000KT 8000 NSC 28/05 Q1010 A2984
Conditions at: OISS (SHIRAZ (CIV/AFB), IR) observed 0150 UTC 23 July 2019
Temperature: 28.0°C (82°F)
Dewpoint: 5.0°C (41°F) [RH = 23%]
Pressure (altimeter): 29.82 inches Hg (1010.0 mb)
Winds: calm
Visibility: 5 miles ( 8 km)
Ceiling: at least 12,000 feet AGL
Clouds: sky clear below 12,000 feet AGL
Weather: no significant weather observed at this time

METAR text: OISS 230130Z 00000KT 8000 FEW040 BKN100 26/08 Q1010 A2984
Conditions at: OISS (SHIRAZ (CIV/AFB), IR) observed 0130 UTC 23 July 2019
Temperature: 26.0°C (79°F)
Dewpoint: 8.0°C (46°F) [RH = 32%]
Pressure (altimeter): 29.82 inches Hg (1010.0 mb)
Winds: calm
Visibility: 5 miles ( 8 km)
Ceiling: 10000 feet AGL
Clouds: few clouds at 4000 feet AGL
broken clouds at 10000 feet AGL
Weather: no significant weather observed at this time

METAR text: OISS 230120Z 00000KT 8000 FEW040 BKN100 26/08 Q1010 A2984
Conditions at: OISS (SHIRAZ (CIV/AFB), IR) observed 0120 UTC 23 July 2019
Temperature: 26.0°C (79°F)
Dewpoint: 8.0°C (46°F) [RH = 32%]
Pressure (altimeter): 29.82 inches Hg (1010.0 mb)
Winds: calm
Visibility: 5 miles ( 8 km)
Ceiling: 10000 feet AGL
Clouds: few clouds at 4000 feet AGL
broken clouds at 10000 feet AGL
Weather: no significant weather observed at this time

METAR text: OISS 230100Z 00000KT 8000 FEW040 BKN100 27/07 Q1010 A2983
Conditions at: OISS (SHIRAZ (CIV/AFB), IR) observed 0100 UTC 23 July 2019
Temperature: 27.0°C (81°F)
Dewpoint: 7.0°C (45°F) [RH = 28%]
Pressure (altimeter): 29.82 inches Hg (1010.0 mb)
Winds: calm
Visibility: 5 miles ( 8 km)
Ceiling: 10000 feet AGL
Clouds: few clouds at 4000 feet AGL
broken clouds at 10000 feet AGL
Weather: no significant weather observed at this time

METAR text: OISS 230050Z 00000KT 8000 FEW040 BKN100 27/07 Q1010 A2983
Conditions at: OISS (SHIRAZ (CIV/AFB), IR) observed 0050 UTC 23 July 2019
Temperature: 27.0°C (81°F)
Dewpoint: 7.0°C (45°F) [RH = 28%]
Pressure (altimeter): 29.82 inches Hg (1010.0 mb)
Winds: calm
Visibility: 5 miles ( 8 km)
Ceiling: 10000 feet AGL
Clouds: few clouds at 4000 feet AGL
broken clouds at 10000 feet AGL
Weather: no significant weather observed at this time

METAR text: OISS 230030Z 00000KT 8000 FEW040 BKN100 28/06 Q1009 A2982
Conditions at: OISS (SHIRAZ (CIV/AFB), IR) observed 0030 UTC 23 July 2019
Temperature: 28.0°C (82°F)
Dewpoint: 6.0°C (43°F) [RH = 25%]
Pressure (altimeter): 29.79 inches Hg (1009.0 mb)
Winds: calm
Visibility: 5 miles ( 8 km)
Ceiling: 10000 feet AGL
Clouds: few clouds at 4000 feet AGL
broken clouds at 10000 feet AGL
Weather: no significant weather observed at this time

METAR text: OISS 230020Z 00000KT 8000 FEW040 BKN100 28/06 Q1009 A2982
Conditions at: OISS (SHIRAZ (CIV/AFB), IR) observed 0020 UTC 23 July 2019
Temperature: 28.0°C (82°F)
Dewpoint: 6.0°C (43°F) [RH = 25%]
Pressure (altimeter): 29.79 inches Hg (1009.0 mb)
Winds: calm
Visibility: 5 miles ( 8 km)
Ceiling: 10000 feet AGL
Clouds: few clouds at 4000 feet AGL
broken clouds at 10000 feet AGL
Weather: no significant weather observed at this time

METAR text: OISS 230000Z 00000KT 8000 FEW040 SCT100 BKN200 28/04 Q1009 A2982
Conditions at: OISS (SHIRAZ (CIV/AFB), IR) observed 0000 UTC 23 July 2019
Temperature: 28.0°C (82°F)
Dewpoint: 4.0°C (39°F) [RH = 22%]
Pressure (altimeter): 29.79 inches Hg (1009.0 mb)
Winds: calm
Visibility: 5 miles ( 8 km)
Ceiling: 20000 feet AGL
Clouds: few clouds at 4000 feet AGL
scattered clouds at 10000 feet AGL
broken clouds at 20000 feet AGL
Weather: no significant weather observed at this time

METAR text: OISS 222350Z 00000KT 8000 FEW040 SCT100 BKN200 28/04 Q1009 A2982
Conditions at: OISS (SHIRAZ (CIV/AFB), IR) observed 2350 UTC 22 July 2019
Temperature: 28.0°C (82°F)
Dewpoint: 4.0°C (39°F) [RH = 22%]
Pressure (altimeter): 29.79 inches Hg (1009.0 mb)
Winds: calm
Visibility: 5 miles ( 8 km)
Ceiling: 20000 feet AGL
Clouds: few clouds at 4000 feet AGL
scattered clouds at 10000 feet AGL
broken clouds at 20000 feet AGL
Weather: no significant weather observed at this time

METAR text: OISS 222330Z 18004KT 8000 FEW040 SCT100 BKN200 28/05 Q1009 A2982
Conditions at: OISS (SHIRAZ (CIV/AFB), IR) observed 2330 UTC 22 July 2019
Temperature: 28.0°C (82°F)
Dewpoint: 5.0°C (41°F) [RH = 23%]
Pressure (altimeter): 29.79 inches Hg (1009.0 mb)
Winds: from the S (180 degrees) at 5 MPH (4 knots; 2.1 m/s)
Visibility: 5 miles ( 8 km)
Ceiling: 20000 feet AGL
Clouds: few clouds at 4000 feet AGL
scattered clouds at 10000 feet AGL
broken clouds at 20000 feet AGL
Weather: no significant weather observed at this time

METAR text: OISS 222320Z 18004KT 8000 FEW040 SCT100 BKN200 28/05 Q1009 A2982
Conditions at: OISS (SHIRAZ (CIV/AFB), IR) observed 2320 UTC 22 July 2019
Temperature: 28.0°C (82°F)
Dewpoint: 5.0°C (41°F) [RH = 23%]
Pressure (altimeter): 29.79 inches Hg (1009.0 mb)
Winds: from the S (180 degrees) at 5 MPH (4 knots; 2.1 m/s)
Visibility: 5 miles ( 8 km)
Ceiling: 20000 feet AGL
Clouds: few clouds at 4000 feet AGL
scattered clouds at 10000 feet AGL
broken clouds at 20000 feet AGL
Weather: no significant weather observed at this time

METAR text: OISS 222300Z 00000KT 8000 FEW040 SCT100 BKN200 31/05 Q1009 A2981
Conditions at: OISS (SHIRAZ (CIV/AFB), IR) observed 2300 UTC 22 July 2019
Temperature: 31.0°C (88°F)
Dewpoint: 5.0°C (41°F) [RH = 19%]
Pressure (altimeter): 29.79 inches Hg (1009.0 mb)
Winds: calm
Visibility: 5 miles ( 8 km)
Ceiling: 20000 feet AGL
Clouds: few clouds at 4000 feet AGL
scattered clouds at 10000 feet AGL
broken clouds at 20000 feet AGL
Weather: no significant weather observed at this time

METAR text: OISS 222250Z 00000KT 8000 FEW040 SCT100 BKN200 31/05 Q1009 A2981
Conditions at: OISS (SHIRAZ (CIV/AFB), IR) observed 2250 UTC 22 July 2019
Temperature: 31.0°C (88°F)
Dewpoint: 5.0°C (41°F) [RH = 19%]
Pressure (altimeter): 29.79 inches Hg (1009.0 mb)
Winds: calm
Visibility: 5 miles ( 8 km)
Ceiling: 20000 feet AGL
Clouds: few clouds at 4000 feet AGL
scattered clouds at 10000 feet AGL
broken clouds at 20000 feet AGL
Weather: no significant weather observed at this time

METAR text: OISS 222230Z 29004KT 8000 FEW040 SCT100 BKN200 32/04 Q1009 A2981
Conditions at: OISS (SHIRAZ (CIV/AFB), IR) observed 2230 UTC 22 July 2019
Temperature: 32.0°C (90°F)
Dewpoint: 4.0°C (39°F) [RH = 17%]
Pressure (altimeter): 29.79 inches Hg (1009.0 mb)
Winds: from the WNW (290 degrees) at 5 MPH (4 knots; 2.1 m/s)
Visibility: 5 miles ( 8 km)
Ceiling: 20000 feet AGL
Clouds: few clouds at 4000 feet AGL
scattered clouds at 10000 feet AGL
broken clouds at 20000 feet AGL
Weather: no significant weather observed at this time

METAR text: OISS 222220Z 29004KT 8000 FEW040 SCT100 BKN200 32/04 Q1009 A2981
Conditions at: OISS (SHIRAZ (CIV/AFB), IR) observed 2220 UTC 22 July 2019
Temperature: 32.0°C (90°F)
Dewpoint: 4.0°C (39°F) [RH = 17%]
Pressure (altimeter): 29.79 inches Hg (1009.0 mb)
Winds: from the WNW (290 degrees) at 5 MPH (4 knots; 2.1 m/s)
Visibility: 5 miles ( 8 km)
Ceiling: 20000 feet AGL
Clouds: few clouds at 4000 feet AGL
scattered clouds at 10000 feet AGL
broken clouds at 20000 feet AGL
Weather: no significant weather observed at this time

METAR text: OISS 222200Z 29006KT 6000 FEW040 SCT100 BKN200 33/M00 Q1009 A2981
Conditions at: OISS (SHIRAZ (CIV/AFB), IR) observed 2200 UTC 22 July 2019
Temperature: 33.0°C (91°F)
Dewpoint: 0.0°C (32°F) [RH = 12%]
Pressure (altimeter): 29.79 inches Hg (1009.0 mb)
Winds: from the WNW (290 degrees) at 7 MPH (6 knots; 3.1 m/s)
Visibility: 4 miles ( 6 km)
Ceiling: 20000 feet AGL
Clouds: few clouds at 4000 feet AGL
scattered clouds at 10000 feet AGL
broken clouds at 20000 feet AGL
Weather: no significant weather observed at this time

METAR text: OISS 222150Z 29006KT 6000 FEW040 SCT100 BKN200 33/M00 Q1009 A2981
Conditions at: OISS (SHIRAZ (CIV/AFB), IR) observed 2150 UTC 22 July 2019
Temperature: 33.0°C (91°F)
Dewpoint: 0.0°C (32°F) [RH = 12%]
Pressure (altimeter): 29.79 inches Hg (1009.0 mb)
Winds: from the WNW (290 degrees) at 7 MPH (6 knots; 3.1 m/s)
Visibility: 4 miles ( 6 km)
Ceiling: 20000 feet AGL
Clouds: few clouds at 4000 feet AGL
scattered clouds at 10000 feet AGL
broken clouds at 20000 feet AGL
Weather: no significant weather observed at this time

METAR text: OISS 222130Z 29004KT 6000 FEW040 SCT100 BKN200 32/04 Q1009 A2981
Conditions at: OISS (SHIRAZ (CIV/AFB), IR) observed 2130 UTC 22 July 2019
Temperature: 32.0°C (90°F)
Dewpoint: 4.0°C (39°F) [RH = 17%]
Pressure (altimeter): 29.79 inches Hg (1009.0 mb)
Winds: from the WNW (290 degrees) at 5 MPH (4 knots; 2.1 m/s)
Visibility: 4 miles ( 6 km)
Ceiling: 20000 feet AGL
Clouds: few clouds at 4000 feet AGL
scattered clouds at 10000 feet AGL
broken clouds at 20000 feet AGL
Weather: no significant weather observed at this time

METAR text: OISS 222120Z 29004KT 6000 FEW040 SCT100 BKN200 32/04 Q1009 A2981
Conditions at: OISS (SHIRAZ (CIV/AFB), IR) observed 2120 UTC 22 July 2019
Temperature: 32.0°C (90°F)
Dewpoint: 4.0°C (39°F) [RH = 17%]
Pressure (altimeter): 29.79 inches Hg (1009.0 mb)
Winds: from the WNW (290 degrees) at 5 MPH (4 knots; 2.1 m/s)
Visibility: 4 miles ( 6 km)
Ceiling: 20000 feet AGL
Clouds: few clouds at 4000 feet AGL
scattered clouds at 10000 feet AGL
broken clouds at 20000 feet AGL
Weather: no significant weather observed at this time

METAR text: OISS 222100Z 29004KT 6000 FEW040 SCT100 BKN200 32/04 Q1009 A2980
Conditions at: OISS (SHIRAZ (CIV/AFB), IR) observed 2100 UTC 22 July 2019
Temperature: 32.0°C (90°F)
Dewpoint: 4.0°C (39°F) [RH = 17%]
Pressure (altimeter): 29.79 inches Hg (1009.0 mb)
Winds: from the WNW (290 degrees) at 5 MPH (4 knots; 2.1 m/s)
Visibility: 4 miles ( 6 km)
Ceiling: 20000 feet AGL
Clouds: few clouds at 4000 feet AGL
scattered clouds at 10000 feet AGL
broken clouds at 20000 feet AGL
Weather: no significant weather observed at this time

METAR text: OISS 222050Z 29004KT 6000 FEW040 SCT100 BKN200 32/04 Q1009 A2980
Conditions at: OISS (SHIRAZ (CIV/AFB), IR) observed 2050 UTC 22 July 2019
Temperature: 32.0°C (90°F)
Dewpoint: 4.0°C (39°F) [RH = 17%]
Pressure (altimeter): 29.79 inches Hg (1009.0 mb)
Winds: from the WNW (290 degrees) at 5 MPH (4 knots; 2.1 m/s)
Visibility: 4 miles ( 6 km)
Ceiling: 20000 feet AGL
Clouds: few clouds at 4000 feet AGL
scattered clouds at 10000 feet AGL
broken clouds at 20000 feet AGL
Weather: no significant weather observed at this time

METAR text: OISS 222030Z 27004KT 6000 FEW040 SCT100 BKN200 32/04 Q1009 A2981
Conditions at: OISS (SHIRAZ (CIV/AFB), IR) observed 2030 UTC 22 July 2019
Temperature: 32.0°C (90°F)
Dewpoint: 4.0°C (39°F) [RH = 17%]
Pressure (altimeter): 29.79 inches Hg (1009.0 mb)
Winds: from the W (270 degrees) at 5 MPH (4 knots; 2.1 m/s)
Visibility: 4 miles ( 6 km)
Ceiling: 20000 feet AGL
Clouds: few clouds at 4000 feet AGL
scattered clouds at 10000 feet AGL
broken clouds at 20000 feet AGL
Weather: no significant weather observed at this time

METAR text: OISS 222020Z 27004KT 6000 FEW040 SCT100 BKN200 32/04 Q1009 A2981
Conditions at: OISS (SHIRAZ (CIV/AFB), IR) observed 2020 UTC 22 July 2019
Temperature: 32.0°C (90°F)
Dewpoint: 4.0°C (39°F) [RH = 17%]
Pressure (altimeter): 29.79 inches Hg (1009.0 mb)
Winds: from the W (270 degrees) at 5 MPH (4 knots; 2.1 m/s)
Visibility: 4 miles ( 6 km)
Ceiling: 20000 feet AGL
Clouds: few clouds at 4000 feet AGL
scattered clouds at 10000 feet AGL
broken clouds at 20000 feet AGL
Weather: no significant weather observed at this time

METAR text: OISS 222000Z 29004KT 6000 FEW040 SCT100 BKN200 32/03 Q1009 A2981
Conditions at: OISS (SHIRAZ (CIV/AFB), IR) observed 2000 UTC 22 July 2019
Temperature: 32.0°C (90°F)
Dewpoint: 3.0°C (37°F) [RH = 16%]
Pressure (altimeter): 29.79 inches Hg (1009.0 mb)
Winds: from the WNW (290 degrees) at 5 MPH (4 knots; 2.1 m/s)
Visibility: 4 miles ( 6 km)
Ceiling: 20000 feet AGL
Clouds: few clouds at 4000 feet AGL
scattered clouds at 10000 feet AGL
broken clouds at 20000 feet AGL
Weather: no significant weather observed at this time

METAR text: OISS 221950Z 29004KT 6000 FEW040 SCT100 BKN200 32/03 Q1009 A2981
Conditions at: OISS (SHIRAZ (CIV/AFB), IR) observed 1950 UTC 22 July 2019
Temperature: 32.0°C (90°F)
Dewpoint: 3.0°C (37°F) [RH = 16%]
Pressure (altimeter): 29.79 inches Hg (1009.0 mb)
Winds: from the WNW (290 degrees) at 5 MPH (4 knots; 2.1 m/s)
Visibility: 4 miles ( 6 km)
Ceiling: 20000 feet AGL
Clouds: few clouds at 4000 feet AGL
scattered clouds at 10000 feet AGL
broken clouds at 20000 feet AGL
Weather: no significant weather observed at this time

METAR text: OISS 221930Z 27004KT 6000 FEW040 SCT100 BKN200 32/03 Q1009 A2982
Conditions at: OISS (SHIRAZ (CIV/AFB), IR) observed 1930 UTC 22 July 2019
Temperature: 32.0°C (90°F)
Dewpoint: 3.0°C (37°F) [RH = 16%]
Pressure (altimeter): 29.79 inches Hg (1009.0 mb)
Winds: from the W (270 degrees) at 5 MPH (4 knots; 2.1 m/s)
Visibility: 4 miles ( 6 km)
Ceiling: 20000 feet AGL
Clouds: few clouds at 4000 feet AGL
scattered clouds at 10000 feet AGL
broken clouds at 20000 feet AGL
Weather: no significant weather observed at this time

METAR text: OISS 221920Z 27004KT 6000 FEW040 SCT100 BKN200 32/03 Q1009 A2982
Conditions at: OISS (SHIRAZ (CIV/AFB), IR) observed 1920 UTC 22 July 2019
Temperature: 32.0°C (90°F)
Dewpoint: 3.0°C (37°F) [RH = 16%]
Pressure (altimeter): 29.79 inches Hg (1009.0 mb)
Winds: from the W (270 degrees) at 5 MPH (4 knots; 2.1 m/s)
Visibility: 4 miles ( 6 km)
Ceiling: 20000 feet AGL
Clouds: few clouds at 4000 feet AGL
scattered clouds at 10000 feet AGL
broken clouds at 20000 feet AGL
Weather: no significant weather observed at this time

METAR text: OISS 221900Z 00000KT 6000 FEW040 SCT100 BKN200 31/04 Q1009 A2982
Conditions at: OISS (SHIRAZ (CIV/AFB), IR) observed 1900 UTC 22 July 2019
Temperature: 31.0°C (88°F)
Dewpoint: 4.0°C (39°F) [RH = 18%]
Pressure (altimeter): 29.79 inches Hg (1009.0 mb)
Winds: calm
Visibility: 4 miles ( 6 km)
Ceiling: 20000 feet AGL
Clouds: few clouds at 4000 feet AGL
scattered clouds at 10000 feet AGL
broken clouds at 20000 feet AGL
Weather: no significant weather observed at this time

METAR text: OISS 221850Z 00000KT 6000 FEW040 SCT100 BKN200 31/04 Q1009 A2982
Conditions at: OISS (SHIRAZ (CIV/AFB), IR) observed 1850 UTC 22 July 2019
Temperature: 31.0°C (88°F)
Dewpoint: 4.0°C (39°F) [RH = 18%]
Pressure (altimeter): 29.79 inches Hg (1009.0 mb)
Winds: calm
Visibility: 4 miles ( 6 km)
Ceiling: 20000 feet AGL
Clouds: few clouds at 4000 feet AGL
scattered clouds at 10000 feet AGL
broken clouds at 20000 feet AGL
Weather: no significant weather observed at this time

METAR text: OISS 221830Z 00000KT 6000 FEW040 SCT100 BKN200 30/04 Q1009 A2982
Conditions at: OISS (SHIRAZ (CIV/AFB), IR) observed 1830 UTC 22 July 2019
Temperature: 30.0°C (86°F)
Dewpoint: 4.0°C (39°F) [RH = 19%]
Pressure (altimeter): 29.79 inches Hg (1009.0 mb)
Winds: calm
Visibility: 4 miles ( 6 km)
Ceiling: 20000 feet AGL
Clouds: few clouds at 4000 feet AGL
scattered clouds at 10000 feet AGL
broken clouds at 20000 feet AGL
Weather: no significant weather observed at this time

METAR text: OISS 221820Z 00000KT 6000 FEW040 SCT100 BKN200 30/04 Q1009 A2982
Conditions at: OISS (SHIRAZ (CIV/AFB), IR) observed 1820 UTC 22 July 2019
Temperature: 30.0°C (86°F)
Dewpoint: 4.0°C (39°F) [RH = 19%]
Pressure (altimeter): 29.79 inches Hg (1009.0 mb)
Winds: calm
Visibility: 4 miles ( 6 km)
Ceiling: 20000 feet AGL
Clouds: few clouds at 4000 feet AGL
scattered clouds at 10000 feet AGL
broken clouds at 20000 feet AGL
Weather: no significant weather observed at this time

METAR text: OISS 221800Z 00000KT 6000 FEW040 SCT100 BKN200 33/01 Q1009 A2982
Conditions at: OISS (SHIRAZ (CIV/AFB), IR) observed 1800 UTC 22 July 2019
Temperature: 33.0°C (91°F)
Dewpoint: 1.0°C (34°F) [RH = 13%]
Pressure (altimeter): 29.79 inches Hg (1009.0 mb)
Winds: calm
Visibility: 4 miles ( 6 km)
Ceiling: 20000 feet AGL
Clouds: few clouds at 4000 feet AGL
scattered clouds at 10000 feet AGL
broken clouds at 20000 feet AGL
Weather: no significant weather observed at this time

METAR text: OISS 221750Z 00000KT 6000 FEW040 SCT100 BKN200 33/01 Q1009 A2982
Conditions at: OISS (SHIRAZ (CIV/AFB), IR) observed 1750 UTC 22 July 2019
Temperature: 33.0°C (91°F)
Dewpoint: 1.0°C (34°F) [RH = 13%]
Pressure (altimeter): 29.79 inches Hg (1009.0 mb)
Winds: calm
Visibility: 4 miles ( 6 km)
Ceiling: 20000 feet AGL
Clouds: few clouds at 4000 feet AGL
scattered clouds at 10000 feet AGL
broken clouds at 20000 feet AGL
Weather: no significant weather observed at this time

METAR text: OISS 221730Z 00000KT 4000 HZ FEW040 SCT200 33/M01 Q1009 A2982
Conditions at: OISS (SHIRAZ (CIV/AFB), IR) observed 1730 UTC 22 July 2019
Temperature: 33.0°C (91°F)
Dewpoint: -1.0°C (30°F) [RH = 11%]
Pressure (altimeter): 29.79 inches Hg (1009.0 mb)
Winds: calm
Visibility: 2.49 miles (4.01 km)
Ceiling: at least 12,000 feet AGL
Clouds: few clouds at 4000 feet AGL
scattered clouds at 20000 feet AGL
Weather: HZ  (haze)

METAR text: OISS 221720Z 00000KT 4000 HZ FEW040 SCT200 33/M01 Q1009 A2982
Conditions at: OISS (SHIRAZ (CIV/AFB), IR) observed 1720 UTC 22 July 2019
Temperature: 33.0°C (91°F)
Dewpoint: -1.0°C (30°F) [RH = 11%]
Pressure (altimeter): 29.79 inches Hg (1009.0 mb)
Winds: calm
Visibility: 2.49 miles (4.01 km)
Ceiling: at least 12,000 feet AGL
Clouds: few clouds at 4000 feet AGL
scattered clouds at 20000 feet AGL
Weather: HZ  (haze)

METAR text: OISS 221700Z 06004KT 4000 HZ FEW040 SCT200 34/M00 Q1009 A2982
Conditions at: OISS (SHIRAZ (CIV/AFB), IR) observed 1700 UTC 22 July 2019
Temperature: 34.0°C (93°F)
Dewpoint: 0.0°C (32°F) [RH = 11%]
Pressure (altimeter): 29.79 inches Hg (1009.0 mb)
Winds: from the ENE (60 degrees) at 5 MPH (4 knots; 2.1 m/s)
Visibility: 2.49 miles (4.01 km)
Ceiling: at least 12,000 feet AGL
Clouds: few clouds at 4000 feet AGL
scattered clouds at 20000 feet AGL
Weather: HZ  (haze)

METAR text: OISS 221650Z 06004KT 4000 HZ FEW040 SCT200 34/M00 Q1009 A2982
Conditions at: OISS (SHIRAZ (CIV/AFB), IR) observed 1650 UTC 22 July 2019
Temperature: 34.0°C (93°F)
Dewpoint: 0.0°C (32°F) [RH = 11%]
Pressure (altimeter): 29.79 inches Hg (1009.0 mb)
Winds: from the ENE (60 degrees) at 5 MPH (4 knots; 2.1 m/s)
Visibility: 2.49 miles (4.01 km)
Ceiling: at least 12,000 feet AGL
Clouds: few clouds at 4000 feet AGL
scattered clouds at 20000 feet AGL
Weather: HZ  (haze)

METAR text: OISS 221630Z 03004KT 4000 HZ FEW040 SCT200 35/M01 Q1009 A2981
Conditions at: OISS (SHIRAZ (CIV/AFB), IR) observed 1630 UTC 22 July 2019
Temperature: 35.0°C (95°F)
Dewpoint: -1.0°C (30°F) [RH = 10%]
Pressure (altimeter): 29.79 inches Hg (1009.0 mb)
Winds: from the NNE (30 degrees) at 5 MPH (4 knots; 2.1 m/s)
Visibility: 2.49 miles (4.01 km)
Ceiling: at least 12,000 feet AGL
Clouds: few clouds at 4000 feet AGL
scattered clouds at 20000 feet AGL
Weather: HZ  (haze)

METAR text: OISS 221620Z 03004KT 4000 HZ FEW040 SCT200 35/M01 Q1009 A2981
Conditions at: OISS (SHIRAZ (CIV/AFB), IR) observed 1620 UTC 22 July 2019
Temperature: 35.0°C (95°F)
Dewpoint: -1.0°C (30°F) [RH = 10%]
Pressure (altimeter): 29.79 inches Hg (1009.0 mb)
Winds: from the NNE (30 degrees) at 5 MPH (4 knots; 2.1 m/s)
Visibility: 2.49 miles (4.01 km)
Ceiling: at least 12,000 feet AGL
Clouds: few clouds at 4000 feet AGL
scattered clouds at 20000 feet AGL
Weather: HZ  (haze)

METAR text: OISS 221600Z 00000KT 4000 HZ FEW040 SCT200 33/05 Q1009 A2981
Conditions at: OISS (SHIRAZ (CIV/AFB), IR) observed 1600 UTC 22 July 2019
Temperature: 33.0°C (91°F)
Dewpoint: 5.0°C (41°F) [RH = 17%]
Pressure (altimeter): 29.79 inches Hg (1009.0 mb)
Winds: calm
Visibility: 2.49 miles (4.01 km)
Ceiling: at least 12,000 feet AGL
Clouds: few clouds at 4000 feet AGL
scattered clouds at 20000 feet AGL
Weather: HZ  (haze)

METAR text: OISS 221550Z 00000KT 4000 HZ FEW040 SCT200 33/05 Q1009 A2981
Conditions at: OISS (SHIRAZ (CIV/AFB), IR) observed 1550 UTC 22 July 2019
Temperature: 33.0°C (91°F)
Dewpoint: 5.0°C (41°F) [RH = 17%]
Pressure (altimeter): 29.79 inches Hg (1009.0 mb)
Winds: calm
Visibility: 2.49 miles (4.01 km)
Ceiling: at least 12,000 feet AGL
Clouds: few clouds at 4000 feet AGL
scattered clouds at 20000 feet AGL
Weather: HZ  (haze)

METAR text: OISS 221530Z 00000KT 4000 HZ FEW040 SCT200 33/04 Q1009 A2981
Conditions at: OISS (SHIRAZ (CIV/AFB), IR) observed 1530 UTC 22 July 2019
Temperature: 33.0°C (91°F)
Dewpoint: 4.0°C (39°F) [RH = 16%]
Pressure (altimeter): 29.79 inches Hg (1009.0 mb)
Winds: calm
Visibility: 2.49 miles (4.01 km)
Ceiling: at least 12,000 feet AGL
Clouds: few clouds at 4000 feet AGL
scattered clouds at 20000 feet AGL
Weather: HZ  (haze)

METAR text: OISS 221520Z 00000KT 4000 HZ FEW040 SCT200 33/04 Q1009 A2981
Conditions at: OISS (SHIRAZ (CIV/AFB), IR) observed 1520 UTC 22 July 2019
Temperature: 33.0°C (91°F)
Dewpoint: 4.0°C (39°F) [RH = 16%]
Pressure (altimeter): 29.79 inches Hg (1009.0 mb)
Winds: calm
Visibility: 2.49 miles (4.01 km)
Ceiling: at least 12,000 feet AGL
Clouds: few clouds at 4000 feet AGL
scattered clouds at 20000 feet AGL
Weather: HZ  (haze)

METAR text: OISS 221500Z 00000KT 4000 HZ FEW040 SCT200 36/M02 Q1009 A2980
Conditions at: OISS (SHIRAZ (CIV/AFB), IR) observed 1500 UTC 22 July 2019
Temperature: 36.0°C (97°F)
Dewpoint: -2.0°C (28°F) [RH =  9%]
Pressure (altimeter): 29.79 inches Hg (1009.0 mb)
Winds: calm
Visibility: 2.49 miles (4.01 km)
Ceiling: at least 12,000 feet AGL
Clouds: few clouds at 4000 feet AGL
scattered clouds at 20000 feet AGL
Weather: HZ  (haze)

METAR text: OISS 221450Z 00000KT 4000 HZ FEW040 SCT200 36/M02 Q1009 A2980
Conditions at: OISS (SHIRAZ (CIV/AFB), IR) observed 1450 UTC 22 July 2019
Temperature: 36.0°C (97°F)
Dewpoint: -2.0°C (28°F) [RH =  9%]
Pressure (altimeter): 29.79 inches Hg (1009.0 mb)
Winds: calm
Visibility: 2.49 miles (4.01 km)
Ceiling: at least 12,000 feet AGL
Clouds: few clouds at 4000 feet AGL
scattered clouds at 20000 feet AGL
Weather: HZ  (haze)

METAR text: OISS 221430Z 00000KT 4000 HZ FEW040 SCT200 37/M01 Q1009 A2980
Conditions at: OISS (SHIRAZ (CIV/AFB), IR) observed 1430 UTC 22 July 2019
Temperature: 37.0°C (99°F)
Dewpoint: -1.0°C (30°F) [RH =  9%]
Pressure (altimeter): 29.79 inches Hg (1009.0 mb)
Winds: calm
Visibility: 2.49 miles (4.01 km)
Ceiling: at least 12,000 feet AGL
Clouds: few clouds at 4000 feet AGL
scattered clouds at 20000 feet AGL
Weather: HZ  (haze)

METAR text: OISS 221425Z 00000KT 4000 HZ FEW040 SCT200 37/M01 Q1009 A2980
Conditions at: OISS (SHIRAZ (CIV/AFB), IR) observed 1425 UTC 22 July 2019
Temperature: 37.0°C (99°F)
Dewpoint: -1.0°C (30°F) [RH =  9%]
Pressure (altimeter): 29.79 inches Hg (1009.0 mb)
Winds: calm
Visibility: 2.49 miles (4.01 km)
Ceiling: at least 12,000 feet AGL
Clouds: few clouds at 4000 feet AGL
scattered clouds at 20000 feet AGL
Weather: HZ  (haze)

METAR text: OISS 221400Z 00000KT 4000 HZ FEW040 SCT200 37/M04 Q1009 A2980
Conditions at: OISS (SHIRAZ (CIV/AFB), IR) observed 1400 UTC 22 July 2019
Temperature: 37.0°C (99°F)
Dewpoint: -4.0°C (25°F) [RH =  7%]
Pressure (altimeter): 29.79 inches Hg (1009.0 mb)
Winds: calm
Visibility: 2.49 miles (4.01 km)
Ceiling: at least 12,000 feet AGL
Clouds: few clouds at 4000 feet AGL
scattered clouds at 20000 feet AGL
Weather: HZ  (haze)

METAR text: OISS 221350Z 00000KT 4000 HZ FEW040 SCT200 37/M04 Q1009 A2980
Conditions at: OISS (SHIRAZ (CIV/AFB), IR) observed 1350 UTC 22 July 2019
Temperature: 37.0°C (99°F)
Dewpoint: -4.0°C (25°F) [RH =  7%]
Pressure (altimeter): 29.79 inches Hg (1009.0 mb)
Winds: calm
Visibility: 2.49 miles (4.01 km)
Ceiling: at least 12,000 feet AGL
Clouds: few clouds at 4000 feet AGL
scattered clouds at 20000 feet AGL
Weather: HZ  (haze)

METAR text: OISS 221330Z 12004KT 3000 HZ FEW035TCU SCT040 BKN100 38/M07 Q1009 A2980
Conditions at: OISS (SHIRAZ (CIV/AFB), IR) observed 1330 UTC 22 July 2019
Temperature: 38.0°C (100°F)
Dewpoint: -7.0°C (19°F) [RH =  5%]
Pressure (altimeter): 29.79 inches Hg (1009.0 mb)
Winds: from the ESE (120 degrees) at 5 MPH (4 knots; 2.1 m/s)
Visibility: 1.86 miles (2.99 km)
Ceiling: 10000 feet AGL
Clouds: few clouds at 3500 feet AGL
scattered clouds at 4000 feet AGL
broken clouds at 10000 feet AGL
Weather: HZ  (haze)

METAR text: OISS 221325Z 12004KT 3000 HZ FEW035TCU SCT040 BKN100 38/M07 Q1009 A2980
Conditions at: OISS (SHIRAZ (CIV/AFB), IR) observed 1325 UTC 22 July 2019
Temperature: 38.0°C (100°F)
Dewpoint: -7.0°C (19°F) [RH =  5%]
Pressure (altimeter): 29.79 inches Hg (1009.0 mb)
Winds: from the ESE (120 degrees) at 5 MPH (4 knots; 2.1 m/s)
Visibility: 1.86 miles (2.99 km)
Ceiling: 10000 feet AGL
Clouds: few clouds at 3500 feet AGL
scattered clouds at 4000 feet AGL
broken clouds at 10000 feet AGL
Weather: HZ  (haze)

METAR text: OISS 221300Z 00000KT 3000 HZ FEW035TCU SCT040 BKN100 38/M06 Q1009 A2980
Conditions at: OISS (SHIRAZ (CIV/AFB), IR) observed 1300 UTC 22 July 2019
Temperature: 38.0°C (100°F)
Dewpoint: -6.0°C (21°F) [RH =  6%]
Pressure (altimeter): 29.79 inches Hg (1009.0 mb)
Winds: calm
Visibility: 1.86 miles (2.99 km)
Ceiling: 10000 feet AGL
Clouds: few clouds at 3500 feet AGL
scattered clouds at 4000 feet AGL
broken clouds at 10000 feet AGL
Weather: HZ  (haze)

METAR text: OISS 221250Z 00000KT 3000 HZ FEW035TCU SCT040 BKN100 38/M06 Q1009 A2980 NOSIG
Conditions at: OISS (SHIRAZ (CIV/AFB), IR) observed 1250 UTC 22 July 2019
Temperature: 38.0°C (100°F)
Dewpoint: -6.0°C (21°F) [RH =  6%]
Pressure (altimeter): 29.79 inches Hg (1009.0 mb)
Winds: calm
Visibility: 1.86 miles (2.99 km)
Ceiling: 10000 feet AGL
Clouds: few clouds at 3500 feet AGL
scattered clouds at 4000 feet AGL
broken clouds at 10000 feet AGL
Weather: HZ  (haze)

METAR text: OISS 221230Z 08004KT 3000 HZ FEW035TCU SCT040 BKN100 37/M04 Q1009 A2981
Conditions at: OISS (SHIRAZ (CIV/AFB), IR) observed 1230 UTC 22 July 2019
Temperature: 37.0°C (99°F)
Dewpoint: -4.0°C (25°F) [RH =  7%]
Pressure (altimeter): 29.79 inches Hg (1009.0 mb)
Winds: from the E (80 degrees) at 5 MPH (4 knots; 2.1 m/s)
Visibility: 1.86 miles (2.99 km)
Ceiling: 10000 feet AGL
Clouds: few clouds at 3500 feet AGL
scattered clouds at 4000 feet AGL
broken clouds at 10000 feet AGL
Weather: HZ  (haze)

METAR text: OISS 221225Z 08004KT 3000 HZ FEW035TCU SCT040 BKN100 37/M04 Q1009 A2981
Conditions at: OISS (SHIRAZ (CIV/AFB), IR) observed 1225 UTC 22 July 2019
Temperature: 37.0°C (99°F)
Dewpoint: -4.0°C (25°F) [RH =  7%]
Pressure (altimeter): 29.79 inches Hg (1009.0 mb)
Winds: from the E (80 degrees) at 5 MPH (4 knots; 2.1 m/s)
Visibility: 1.86 miles (2.99 km)
Ceiling: 10000 feet AGL
Clouds: few clouds at 3500 feet AGL
scattered clouds at 4000 feet AGL
broken clouds at 10000 feet AGL
Weather: HZ  (haze)

METAR text: OISS 221200Z 03006KT 3000 HZ FEW035TCU SCT040 BKN100 38/M03 Q1010 A2983
Conditions at: OISS (SHIRAZ (CIV/AFB), IR) observed 1200 UTC 22 July 2019
Temperature: 38.0°C (100°F)
Dewpoint: -3.0°C (27°F) [RH =  7%]
Pressure (altimeter): 29.82 inches Hg (1010.0 mb)
Winds: from the NNE (30 degrees) at 7 MPH (6 knots; 3.1 m/s)
Visibility: 1.86 miles (2.99 km)
Ceiling: 10000 feet AGL
Clouds: few clouds at 3500 feet AGL
scattered clouds at 4000 feet AGL
broken clouds at 10000 feet AGL
Weather: HZ  (haze)

METAR text: OISS 221150Z 03006KT 3000 HZ FEW035TCU SCT040 BKN100 38/M03 Q1010 A2983
Conditions at: OISS (SHIRAZ (CIV/AFB), IR) observed 1150 UTC 22 July 2019
Temperature: 38.0°C (100°F)
Dewpoint: -3.0°C (27°F) [RH =  7%]
Pressure (altimeter): 29.82 inches Hg (1010.0 mb)
Winds: from the NNE (30 degrees) at 7 MPH (6 knots; 3.1 m/s)
Visibility: 1.86 miles (2.99 km)
Ceiling: 10000 feet AGL
Clouds: few clouds at 3500 feet AGL
scattered clouds at 4000 feet AGL
broken clouds at 10000 feet AGL
Weather: HZ  (haze)

METAR text: OISS 221130Z 11004KT 3000 HZ SCT035TCU SCT100 BKN200 39/M03 Q1009 A2982
Conditions at: OISS (SHIRAZ (CIV/AFB), IR) observed 1130 UTC 22 July 2019
Temperature: 39.0°C (102°F)
Dewpoint: -3.0°C (27°F) [RH =  7%]
Pressure (altimeter): 29.79 inches Hg (1009.0 mb)
Winds: from the ESE (110 degrees) at 5 MPH (4 knots; 2.1 m/s)
Visibility: 1.86 miles (2.99 km)
Ceiling: 20000 feet AGL
Clouds: scattered clouds at 3500 feet AGL
scattered clouds at 10000 feet AGL
broken clouds at 20000 feet AGL
Weather: HZ  (haze)

METAR text: OISS 221125Z 11004KT 3000 HZ SCT035TCU SCT100 BKN200 39/M03 Q1009 A2982
Conditions at: OISS (SHIRAZ (CIV/AFB), IR) observed 1125 UTC 22 July 2019
Temperature: 39.0°C (102°F)
Dewpoint: -3.0°C (27°F) [RH =  7%]
Pressure (altimeter): 29.79 inches Hg (1009.0 mb)
Winds: from the ESE (110 degrees) at 5 MPH (4 knots; 2.1 m/s)
Visibility: 1.86 miles (2.99 km)
Ceiling: 20000 feet AGL
Clouds: scattered clouds at 3500 feet AGL
scattered clouds at 10000 feet AGL
broken clouds at 20000 feet AGL
Weather: HZ  (haze)

METAR text: OISS 221100Z 08006KT 3000 HZ SCT035TCU SCT100 BKN200 38/M04 Q1010 A2983
Conditions at: OISS (SHIRAZ (CIV/AFB), IR) observed 1100 UTC 22 July 2019
Temperature: 38.0°C (100°F)
Dewpoint: -4.0°C (25°F) [RH =  7%]
Pressure (altimeter): 29.82 inches Hg (1010.0 mb)
Winds: from the E (80 degrees) at 7 MPH (6 knots; 3.1 m/s)
Visibility: 1.86 miles (2.99 km)
Ceiling: 20000 feet AGL
Clouds: scattered clouds at 3500 feet AGL
scattered clouds at 10000 feet AGL
broken clouds at 20000 feet AGL
Weather: HZ  (haze)

METAR text: OISS 221050Z 08006KT 3000 HZ SCT035TCU SCT100 BKN200 38/M04 Q1010 A2983 NOSIG
Conditions at: OISS (SHIRAZ (CIV/AFB), IR) observed 1050 UTC 22 July 2019
Temperature: 38.0°C (100°F)
Dewpoint: -4.0°C (25°F) [RH =  7%]
Pressure (altimeter): 29.82 inches Hg (1010.0 mb)
Winds: from the E (80 degrees) at 7 MPH (6 knots; 3.1 m/s)
Visibility: 1.86 miles (2.99 km)
Ceiling: 20000 feet AGL
Clouds: scattered clouds at 3500 feet AGL
scattered clouds at 10000 feet AGL
broken clouds at 20000 feet AGL
Weather: HZ  (haze)

METAR text: OISS 221030Z 18004KT 3000 HZ SCT035TCU BKN200 38/M02 Q1010 A2984
Conditions at: OISS (SHIRAZ (CIV/AFB), IR) observed 1030 UTC 22 July 2019
Temperature: 38.0°C (100°F)
Dewpoint: -2.0°C (28°F) [RH =  8%]
Pressure (altimeter): 29.82 inches Hg (1010.0 mb)
Winds: from the S (180 degrees) at 5 MPH (4 knots; 2.1 m/s)
Visibility: 1.86 miles (2.99 km)
Ceiling: 20000 feet AGL
Clouds: scattered clouds at 3500 feet AGL
broken clouds at 20000 feet AGL
Weather: HZ  (haze)

METAR text: OISS 221025Z 18004KT 3000 HZ SCT035TCU BKN200 38/M02 Q1010 A2984
Conditions at: OISS (SHIRAZ (CIV/AFB), IR) observed 1025 UTC 22 July 2019
Temperature: 38.0°C (100°F)
Dewpoint: -2.0°C (28°F) [RH =  8%]
Pressure (altimeter): 29.82 inches Hg (1010.0 mb)
Winds: from the S (180 degrees) at 5 MPH (4 knots; 2.1 m/s)
Visibility: 1.86 miles (2.99 km)
Ceiling: 20000 feet AGL
Clouds: scattered clouds at 3500 feet AGL
broken clouds at 20000 feet AGL
Weather: HZ  (haze)

METAR text: OISS 221000Z 00000KT 3000 HZ SCT035TCU BKN200 37/M04 Q1010 A2985
Conditions at: OISS (SHIRAZ (CIV/AFB), IR) observed 1000 UTC 22 July 2019
Temperature: 37.0°C (99°F)
Dewpoint: -4.0°C (25°F) [RH =  7%]
Pressure (altimeter): 29.82 inches Hg (1010.0 mb)
Winds: calm
Visibility: 1.86 miles (2.99 km)
Ceiling: 20000 feet AGL
Clouds: scattered clouds at 3500 feet AGL
broken clouds at 20000 feet AGL
Weather: HZ  (haze)

METAR text: OISS 220950Z 00000KT 3000 HZ SCT035TCU BKN200 37/M04 Q1010 A2985
Conditions at: OISS (SHIRAZ (CIV/AFB), IR) observed 0950 UTC 22 July 2019
Temperature: 37.0°C (99°F)
Dewpoint: -4.0°C (25°F) [RH =  7%]
Pressure (altimeter): 29.82 inches Hg (1010.0 mb)
Winds: calm
Visibility: 1.86 miles (2.99 km)
Ceiling: 20000 feet AGL
Clouds: scattered clouds at 3500 feet AGL
broken clouds at 20000 feet AGL
Weather: HZ  (haze)

METAR text: OISS 220930Z 06004KT 3000 HZ SCT035TCU BKN200 38/M04 Q1011 A2986
Conditions at: OISS (SHIRAZ (CIV/AFB), IR) observed 0930 UTC 22 July 2019
Temperature: 38.0°C (100°F)
Dewpoint: -4.0°C (25°F) [RH =  7%]
Pressure (altimeter): 29.85 inches Hg (1011.0 mb)
Winds: from the ENE (60 degrees) at 5 MPH (4 knots; 2.1 m/s)
Visibility: 1.86 miles (2.99 km)
Ceiling: 20000 feet AGL
Clouds: scattered clouds at 3500 feet AGL
broken clouds at 20000 feet AGL
Weather: HZ  (haze)

METAR text: OISS 220925Z 06004KT 3000 HZ SCT035TCU BKN200 38/M04 Q1011 A2986
Conditions at: OISS (SHIRAZ (CIV/AFB), IR) observed 0925 UTC 22 July 2019
Temperature: 38.0°C (100°F)
Dewpoint: -4.0°C (25°F) [RH =  7%]
Pressure (altimeter): 29.85 inches Hg (1011.0 mb)
Winds: from the ENE (60 degrees) at 5 MPH (4 knots; 2.1 m/s)
Visibility: 1.86 miles (2.99 km)
Ceiling: 20000 feet AGL
Clouds: scattered clouds at 3500 feet AGL
broken clouds at 20000 feet AGL
Weather: HZ  (haze)

METAR text: OISS 220900Z 00000KT 3000 HZ SCT035TCU BKN200 37/M02 Q1011 A2987
Conditions at: OISS (SHIRAZ (CIV/AFB), IR) observed 0900 UTC 22 July 2019
Temperature: 37.0°C (99°F)
Dewpoint: -2.0°C (28°F) [RH =  8%]
Pressure (altimeter): 29.85 inches Hg (1011.0 mb)
Winds: calm
Visibility: 1.86 miles (2.99 km)
Ceiling: 20000 feet AGL
Clouds: scattered clouds at 3500 feet AGL
broken clouds at 20000 feet AGL
Weather: HZ  (haze)

METAR text: OISS 220830Z 00000KT 3000 DU FEW040 BKN200 37/M02 Q1011 A2987
Conditions at: OISS (SHIRAZ (CIV/AFB), IR) observed 0830 UTC 22 July 2019
Temperature: 37.0°C (99°F)
Dewpoint: -2.0°C (28°F) [RH =  8%]
Pressure (altimeter): 29.85 inches Hg (1011.0 mb)
Winds: calm
Visibility: 1.86 miles (2.99 km)
Ceiling: 20000 feet AGL
Clouds: few clouds at 4000 feet AGL
broken clouds at 20000 feet AGL
Weather: DU  (widespread dust)

METAR text: OISS 220825Z 00000KT 3000 DU FEW040 BKN200 37/M02 Q1011 A2987
Conditions at: OISS (SHIRAZ (CIV/AFB), IR) observed 0825 UTC 22 July 2019
Temperature: 37.0°C (99°F)
Dewpoint: -2.0°C (28°F) [RH =  8%]
Pressure (altimeter): 29.85 inches Hg (1011.0 mb)
Winds: calm
Visibility: 1.86 miles (2.99 km)
Ceiling: 20000 feet AGL
Clouds: few clouds at 4000 feet AGL
broken clouds at 20000 feet AGL
Weather: DU  (widespread dust)

METAR text: OISS 220800Z 13004KT 3000 DU FEW040 BKN200 38/M02 Q1011 A2988
Conditions at: OISS (SHIRAZ (CIV/AFB), IR) observed 0800 UTC 22 July 2019
Temperature: 38.0°C (100°F)
Dewpoint: -2.0°C (28°F) [RH =  8%]
Pressure (altimeter): 29.85 inches Hg (1011.0 mb)
Winds: from the SE (130 degrees) at 5 MPH (4 knots; 2.1 m/s)
Visibility: 1.86 miles (2.99 km)
Ceiling: 20000 feet AGL
Clouds: few clouds at 4000 feet AGL
broken clouds at 20000 feet AGL
Weather: DU  (widespread dust)

METAR text: OISS 220750Z 13004KT 3000 DU FEW040 BKN200 38/M02 Q1011 A2988 NOSIG
Conditions at: OISS (SHIRAZ (CIV/AFB), IR) observed 0750 UTC 22 July 2019
Temperature: 38.0°C (100°F)
Dewpoint: -2.0°C (28°F) [RH =  8%]
Pressure (altimeter): 29.85 inches Hg (1011.0 mb)
Winds: from the SE (130 degrees) at 5 MPH (4 knots; 2.1 m/s)
Visibility: 1.86 miles (2.99 km)
Ceiling: 20000 feet AGL
Clouds: few clouds at 4000 feet AGL
broken clouds at 20000 feet AGL
Weather: DU  (widespread dust)

METAR text: OISS 220730Z 00000KT 5000 HZ SCT040 BKN100 37/M01 Q1012 A2989
Conditions at: OISS (SHIRAZ (CIV/AFB), IR) observed 0730 UTC 22 July 2019
Temperature: 37.0°C (99°F)
Dewpoint: -1.0°C (30°F) [RH =  9%]
Pressure (altimeter): 29.88 inches Hg (1012.0 mb)
Winds: calm
Visibility: 3 miles ( 5 km)
Ceiling: 10000 feet AGL
Clouds: scattered clouds at 4000 feet AGL
broken clouds at 10000 feet AGL
Weather: HZ  (haze)

METAR text: OISS 220725Z 00000KT 5000 HZ SCT040 BKN100 37/M01 Q1012 A2989
Conditions at: OISS (SHIRAZ (CIV/AFB), IR) observed 0725 UTC 22 July 2019
Temperature: 37.0°C (99°F)
Dewpoint: -1.0°C (30°F) [RH =  9%]
Pressure (altimeter): 29.88 inches Hg (1012.0 mb)
Winds: calm
Visibility: 3 miles ( 5 km)
Ceiling: 10000 feet AGL
Clouds: scattered clouds at 4000 feet AGL
broken clouds at 10000 feet AGL
Weather: HZ  (haze)

METAR text: OISS 220700Z 00000KT 5000 SCT040 BKN100 36/M03 Q1012 A2990
Conditions at: OISS (SHIRAZ (CIV/AFB), IR) observed 0700 UTC 22 July 2019
Temperature: 36.0°C (97°F)
Dewpoint: -3.0°C (27°F) [RH =  8%]
Pressure (altimeter): 29.88 inches Hg (1012.0 mb)
Winds: calm
Visibility: 3 miles ( 5 km)
Ceiling: 10000 feet AGL
Clouds: scattered clouds at 4000 feet AGL
broken clouds at 10000 feet AGL
Weather: no significant weather observed at this time

METAR text: OISS 220650Z 00000KT 5000 SCT040 BKN100 36/M03 Q1012 A2990 NOSIG
Conditions at: OISS (SHIRAZ (CIV/AFB), IR) observed 0650 UTC 22 July 2019
Temperature: 36.0°C (97°F)
Dewpoint: -3.0°C (27°F) [RH =  8%]
Pressure (altimeter): 29.88 inches Hg (1012.0 mb)
Winds: calm
Visibility: 3 miles ( 5 km)
Ceiling: 10000 feet AGL
Clouds: scattered clouds at 4000 feet AGL
broken clouds at 10000 feet AGL
Weather: no significant weather observed at this time

METAR text: OISS 220630Z 03004KT 5000 SCT040 BKN100 35/M02 Q1012 A2991
Conditions at: OISS (SHIRAZ (CIV/AFB), IR) observed 0630 UTC 22 July 2019
Temperature: 35.0°C (95°F)
Dewpoint: -2.0°C (28°F) [RH =  9%]
Pressure (altimeter): 29.88 inches Hg (1012.0 mb)
Winds: from the NNE (30 degrees) at 5 MPH (4 knots; 2.1 m/s)
Visibility: 3 miles ( 5 km)
Ceiling: 10000 feet AGL
Clouds: scattered clouds at 4000 feet AGL
broken clouds at 10000 feet AGL
Weather: no significant weather observed at this time

METAR text: OISS 220625Z 03004KT 5000 SCT040 BKN100 35/M02 Q1012 A2991
Conditions at: OISS (SHIRAZ (CIV/AFB), IR) observed 0625 UTC 22 July 2019
Temperature: 35.0°C (95°F)
Dewpoint: -2.0°C (28°F) [RH =  9%]
Pressure (altimeter): 29.88 inches Hg (1012.0 mb)
Winds: from the NNE (30 degrees) at 5 MPH (4 knots; 2.1 m/s)
Visibility: 3 miles ( 5 km)
Ceiling: 10000 feet AGL
Clouds: scattered clouds at 4000 feet AGL
broken clouds at 10000 feet AGL
Weather: no significant weather observed at this time

METAR text: OISS 220600Z 00000KT 5000 SCT040 BKN100 35/M02 Q1013 A2991
Conditions at: OISS (SHIRAZ (CIV/AFB), IR) observed 0600 UTC 22 July 2019
Temperature: 35.0°C (95°F)
Dewpoint: -2.0°C (28°F) [RH =  9%]
Pressure (altimeter): 29.91 inches Hg (1013.0 mb)
Winds: calm
Visibility: 3 miles ( 5 km)
Ceiling: 10000 feet AGL
Clouds: scattered clouds at 4000 feet AGL
broken clouds at 10000 feet AGL
Weather: no significant weather observed at this time

METAR text: OISS 220530Z 03004KT 5000 FEW040 BKN100 34/01 Q1013 A2992
Conditions at: OISS (SHIRAZ (CIV/AFB), IR) observed 0530 UTC 22 July 2019
Temperature: 34.0°C (93°F)
Dewpoint: 1.0°C (34°F) [RH = 12%]
Pressure (altimeter): 29.91 inches Hg (1013.0 mb)
Winds: from the NNE (30 degrees) at 5 MPH (4 knots; 2.1 m/s)
Visibility: 3 miles ( 5 km)
Ceiling: 10000 feet AGL
Clouds: few clouds at 4000 feet AGL
broken clouds at 10000 feet AGL
Weather: no significant weather observed at this time

METAR text: OISS 220525Z 03004KT 5000 FEW040 BKN100 34/01 Q1013 A2992
Conditions at: OISS (SHIRAZ (CIV/AFB), IR) observed 0525 UTC 22 July 2019
Temperature: 34.0°C (93°F)
Dewpoint: 1.0°C (34°F) [RH = 12%]
Pressure (altimeter): 29.91 inches Hg (1013.0 mb)
Winds: from the NNE (30 degrees) at 5 MPH (4 knots; 2.1 m/s)
Visibility: 3 miles ( 5 km)
Ceiling: 10000 feet AGL
Clouds: few clouds at 4000 feet AGL
broken clouds at 10000 feet AGL
Weather: no significant weather observed at this time

METAR text: OISS 220500Z 00000KT 6000 FEW040 BKN100 32/00 Q1013 A2992
Conditions at: OISS (SHIRAZ (CIV/AFB), IR) observed 0500 UTC 22 July 2019
Temperature: 32.0°C (90°F)
Dewpoint: 0.0°C (32°F) [RH = 13%]
Pressure (altimeter): 29.91 inches Hg (1013.0 mb)
Winds: calm
Visibility: 4 miles ( 6 km)
Ceiling: 10000 feet AGL
Clouds: few clouds at 4000 feet AGL
broken clouds at 10000 feet AGL
Weather: no significant weather observed at this time

METAR text: OISS 220450Z 00000KT 6000 FEW040 BKN100 32/00 Q1013 A2992 NOSIG
Conditions at: OISS (SHIRAZ (CIV/AFB), IR) observed 0450 UTC 22 July 2019
Temperature: 32.0°C (90°F)
Dewpoint: 0.0°C (32°F) [RH = 13%]
Pressure (altimeter): 29.91 inches Hg (1013.0 mb)
Winds: calm
Visibility: 4 miles ( 6 km)
Ceiling: 10000 feet AGL
Clouds: few clouds at 4000 feet AGL
broken clouds at 10000 feet AGL
Weather: no significant weather observed at this time

METAR text: OISS 220430Z 00000KT 6000 FEW040 BKN100 31/03 Q1013 A2992
Conditions at: OISS (SHIRAZ (CIV/AFB), IR) observed 0430 UTC 22 July 2019
Temperature: 31.0°C (88°F)
Dewpoint: 3.0°C (37°F) [RH = 17%]
Pressure (altimeter): 29.91 inches Hg (1013.0 mb)
Winds: calm
Visibility: 4 miles ( 6 km)
Ceiling: 10000 feet AGL
Clouds: few clouds at 4000 feet AGL
broken clouds at 10000 feet AGL
Weather: no significant weather observed at this time

METAR text: OISS 220425Z 00000KT 6000 FEW040 BKN100 31/03 Q1013 A2992
Conditions at: OISS (SHIRAZ (CIV/AFB), IR) observed 0425 UTC 22 July 2019
Temperature: 31.0°C (88°F)
Dewpoint: 3.0°C (37°F) [RH = 17%]
Pressure (altimeter): 29.91 inches Hg (1013.0 mb)
Winds: calm
Visibility: 4 miles ( 6 km)
Ceiling: 10000 feet AGL
Clouds: few clouds at 4000 feet AGL
broken clouds at 10000 feet AGL
Weather: no significant weather observed at this time

METAR text: OISS 220400Z 33004KT 6000 FEW040 BKN100 29/03 Q1013 A2992
Conditions at: OISS (SHIRAZ (CIV/AFB), IR) observed 0400 UTC 22 July 2019
Temperature: 29.0°C (84°F)
Dewpoint: 3.0°C (37°F) [RH = 19%]
Pressure (altimeter): 29.91 inches Hg (1013.0 mb)
Winds: from the NNW (330 degrees) at 5 MPH (4 knots; 2.1 m/s)
Visibility: 4 miles ( 6 km)
Ceiling: 10000 feet AGL
Clouds: few clouds at 4000 feet AGL
broken clouds at 10000 feet AGL
Weather: no significant weather observed at this time

METAR text: OISS 220350Z 33004KT 6000 FEW040 BKN100 29/03 Q1013 A2992 NOSIG
Conditions at: OISS (SHIRAZ (CIV/AFB), IR) observed 0350 UTC 22 July 2019
Temperature: 29.0°C (84°F)
Dewpoint: 3.0°C (37°F) [RH = 19%]
Pressure (altimeter): 29.91 inches Hg (1013.0 mb)
Winds: from the NNW (330 degrees) at 5 MPH (4 knots; 2.1 m/s)
Visibility: 4 miles ( 6 km)
Ceiling: 10000 feet AGL
Clouds: few clouds at 4000 feet AGL
broken clouds at 10000 feet AGL
Weather: no significant weather observed at this time

METAR text: OISS 220330Z 28004KT 9999 FEW040 BKN100 28/03 Q1013 A2992
Conditions at: OISS (SHIRAZ (CIV/AFB), IR) observed 0330 UTC 22 July 2019
Temperature: 28.0°C (82°F)
Dewpoint: 3.0°C (37°F) [RH = 20%]
Pressure (altimeter): 29.91 inches Hg (1013.0 mb)
Winds: from the W (280 degrees) at 5 MPH (4 knots; 2.1 m/s)
Visibility: 6 or more miles (10+ km)
Ceiling: 10000 feet AGL
Clouds: few clouds at 4000 feet AGL
broken clouds at 10000 feet AGL
Weather: no significant weather observed at this time

METAR text: OISS 220325Z 28004KT 9999 FEW040 BKN100 28/03 Q1013 A2992
Conditions at: OISS (SHIRAZ (CIV/AFB), IR) observed 0325 UTC 22 July 2019
Temperature: 28.0°C (82°F)
Dewpoint: 3.0°C (37°F) [RH = 20%]
Pressure (altimeter): 29.91 inches Hg (1013.0 mb)
Winds: from the W (280 degrees) at 5 MPH (4 knots; 2.1 m/s)
Visibility: 6 or more miles (10+ km)
Ceiling: 10000 feet AGL
Clouds: few clouds at 4000 feet AGL
broken clouds at 10000 feet AGL
Weather: no significant weather observed at this time

METAR text: OISS 220300Z 30004KT CAVOK 28/M01 Q1013 A2992
Conditions at: OISS (SHIRAZ (CIV/AFB), IR) observed 0300 UTC 22 July 2019
Temperature: 28.0°C (82°F)
Dewpoint: -1.0°C (30°F) [RH = 15%]
Pressure (altimeter): 29.91 inches Hg (1013.0 mb)
Winds: from the WNW (300 degrees) at 5 MPH (4 knots; 2.1 m/s)
Visibility: 6 or more miles (10+ km)
Ceiling: ceiling and visibility are OK
Clouds: unknown
Weather: no significant weather observed at this time

METAR text: OISS 220250Z 30004KT CAVOK 28/M01 Q1013 A2992 NOSIG
Conditions at: OISS (SHIRAZ (CIV/AFB), IR) observed 0250 UTC 22 July 2019
Temperature: 28.0°C (82°F)
Dewpoint: -1.0°C (30°F) [RH = 15%]
Pressure (altimeter): 29.91 inches Hg (1013.0 mb)
Winds: from the WNW (300 degrees) at 5 MPH (4 knots; 2.1 m/s)
Visibility: 6 or more miles (10+ km)
Ceiling: ceiling and visibility are OK
Clouds: unknown
Weather: no significant weather observed at this time

METAR text: OISS 220230Z 29004KT CAVOK 28/M02 Q1013 A2992
Conditions at: OISS (SHIRAZ (CIV/AFB), IR) observed 0230 UTC 22 July 2019
Temperature: 28.0°C (82°F)
Dewpoint: -2.0°C (28°F) [RH = 14%]
Pressure (altimeter): 29.91 inches Hg (1013.0 mb)
Winds: from the WNW (290 degrees) at 5 MPH (4 knots; 2.1 m/s)
Visibility: 6 or more miles (10+ km)
Ceiling: ceiling and visibility are OK
Clouds: unknown
Weather: no significant weather observed at this time

METAR text: OISS 220220Z 29004KT CAVOK 28/M02 Q1013 A2992
Conditions at: OISS (SHIRAZ (CIV/AFB), IR) observed 0220 UTC 22 July 2019
Temperature: 28.0°C (82°F)
Dewpoint: -2.0°C (28°F) [RH = 14%]
Pressure (altimeter): 29.91 inches Hg (1013.0 mb)
Winds: from the WNW (290 degrees) at 5 MPH (4 knots; 2.1 m/s)
Visibility: 6 or more miles (10+ km)
Ceiling: ceiling and visibility are OK
Clouds: unknown
Weather: no significant weather observed at this time

METAR text: OISS 220200Z 23004KT CAVOK 26/M01 Q1012 A2991
Conditions at: OISS (SHIRAZ (CIV/AFB), IR) observed 0200 UTC 22 July 2019
Temperature: 26.0°C (79°F)
Dewpoint: -1.0°C (30°F) [RH = 17%]
Pressure (altimeter): 29.88 inches Hg (1012.0 mb)
Winds: from the SW (230 degrees) at 5 MPH (4 knots; 2.1 m/s)
Visibility: 6 or more miles (10+ km)
Ceiling: ceiling and visibility are OK
Clouds: unknown
Weather: no significant weather observed at this time

METAR text: OISS 220150Z 23004KT CAVOK 26/M01 Q1012 A2991
Conditions at: OISS (SHIRAZ (CIV/AFB), IR) observed 0150 UTC 22 July 2019
Temperature: 26.0°C (79°F)
Dewpoint: -1.0°C (30°F) [RH = 17%]
Pressure (altimeter): 29.88 inches Hg (1012.0 mb)
Winds: from the SW (230 degrees) at 5 MPH (4 knots; 2.1 m/s)
Visibility: 6 or more miles (10+ km)
Ceiling: ceiling and visibility are OK
Clouds: unknown
Weather: no significant weather observed at this time

METAR text: OISS 220130Z 00000KT CAVOK 29/M02 Q1012 A2990
Conditions at: OISS (SHIRAZ (CIV/AFB), IR) observed 0130 UTC 22 July 2019
Temperature: 29.0°C (84°F)
Dewpoint: -2.0°C (28°F) [RH = 13%]
Pressure (altimeter): 29.88 inches Hg (1012.0 mb)
Winds: calm
Visibility: 6 or more miles (10+ km)
Ceiling: ceiling and visibility are OK
Clouds: unknown
Weather: no significant weather observed at this time

METAR text: OISS 220120Z 00000KT CAVOK 29/M02 Q1012 A2990
Conditions at: OISS (SHIRAZ (CIV/AFB), IR) observed 0120 UTC 22 July 2019
Temperature: 29.0°C (84°F)
Dewpoint: -2.0°C (28°F) [RH = 13%]
Pressure (altimeter): 29.88 inches Hg (1012.0 mb)
Winds: calm
Visibility: 6 or more miles (10+ km)
Ceiling: ceiling and visibility are OK
Clouds: unknown
Weather: no significant weather observed at this time

METAR text: OISS 220100Z 33004KT CAVOK 27/00 Q1012 A2990
Conditions at: OISS (SHIRAZ (CIV/AFB), IR) observed 0100 UTC 22 July 2019
Temperature: 27.0°C (81°F)
Dewpoint: 0.0°C (32°F) [RH = 17%]
Pressure (altimeter): 29.88 inches Hg (1012.0 mb)
Winds: from the NNW (330 degrees) at 5 MPH (4 knots; 2.1 m/s)
Visibility: 6 or more miles (10+ km)
Ceiling: ceiling and visibility are OK
Clouds: unknown
Weather: no significant weather observed at this time

METAR text: OISS 220050Z 33004KT CAVOK 27/00 Q1012 A2990
Conditions at: OISS (SHIRAZ (CIV/AFB), IR) observed 0050 UTC 22 July 2019
Temperature: 27.0°C (81°F)
Dewpoint: 0.0°C (32°F) [RH = 17%]
Pressure (altimeter): 29.88 inches Hg (1012.0 mb)
Winds: from the NNW (330 degrees) at 5 MPH (4 knots; 2.1 m/s)
Visibility: 6 or more miles (10+ km)
Ceiling: ceiling and visibility are OK
Clouds: unknown
Weather: no significant weather observed at this time

METAR text: OISS 220030Z 32004KT CAVOK 27/00 Q1012 A2989
Conditions at: OISS (SHIRAZ (CIV/AFB), IR) observed 0030 UTC 22 July 2019
Temperature: 27.0°C (81°F)
Dewpoint: 0.0°C (32°F) [RH = 17%]
Pressure (altimeter): 29.88 inches Hg (1012.0 mb)
Winds: from the NW (320 degrees) at 5 MPH (4 knots; 2.1 m/s)
Visibility: 6 or more miles (10+ km)
Ceiling: ceiling and visibility are OK
Clouds: unknown
Weather: no significant weather observed at this time

METAR text: OISS 220020Z 32004KT CAVOK 27/00 Q1012 A2989
Conditions at: OISS (SHIRAZ (CIV/AFB), IR) observed 0020 UTC 22 July 2019
Temperature: 27.0°C (81°F)
Dewpoint: 0.0°C (32°F) [RH = 17%]
Pressure (altimeter): 29.88 inches Hg (1012.0 mb)
Winds: from the NW (320 degrees) at 5 MPH (4 knots; 2.1 m/s)
Visibility: 6 or more miles (10+ km)
Ceiling: ceiling and visibility are OK
Clouds: unknown
Weather: no significant weather observed at this time

METAR text: OISS 220000Z 30004KT CAVOK 29/M00 Q1012 A2989
Conditions at: OISS (SHIRAZ (CIV/AFB), IR) observed 0000 UTC 22 July 2019
Temperature: 29.0°C (84°F)
Dewpoint: 0.0°C (32°F) [RH = 15%]
Pressure (altimeter): 29.88 inches Hg (1012.0 mb)
Winds: from the WNW (300 degrees) at 5 MPH (4 knots; 2.1 m/s)
Visibility: 6 or more miles (10+ km)
Ceiling: ceiling and visibility are OK
Clouds: unknown
Weather: no significant weather observed at this time

METAR text: OISS 212350Z 30004KT CAVOK 29/M00 Q1012 A2989
Conditions at: OISS (SHIRAZ (CIV/AFB), IR) observed 2350 UTC 21 July 2019
Temperature: 29.0°C (84°F)
Dewpoint: 0.0°C (32°F) [RH = 15%]
Pressure (altimeter): 29.88 inches Hg (1012.0 mb)
Winds: from the WNW (300 degrees) at 5 MPH (4 knots; 2.1 m/s)
Visibility: 6 or more miles (10+ km)
Ceiling: ceiling and visibility are OK
Clouds: unknown
Weather: no significant weather observed at this time

METAR text: OISS 212330Z 29004KT CAVOK 29/M00 Q1012 A2989
Conditions at: OISS (SHIRAZ (CIV/AFB), IR) observed 2330 UTC 21 July 2019
Temperature: 29.0°C (84°F)
Dewpoint: 0.0°C (32°F) [RH = 15%]
Pressure (altimeter): 29.88 inches Hg (1012.0 mb)
Winds: from the WNW (290 degrees) at 5 MPH (4 knots; 2.1 m/s)
Visibility: 6 or more miles (10+ km)
Ceiling: ceiling and visibility are OK
Clouds: unknown
Weather: no significant weather observed at this time

METAR text: OISS 212320Z 29004KT CAVOK 29/M00 Q1012 A2989
Conditions at: OISS (SHIRAZ (CIV/AFB), IR) observed 2320 UTC 21 July 2019
Temperature: 29.0°C (84°F)
Dewpoint: 0.0°C (32°F) [RH = 15%]
Pressure (altimeter): 29.88 inches Hg (1012.0 mb)
Winds: from the WNW (290 degrees) at 5 MPH (4 knots; 2.1 m/s)
Visibility: 6 or more miles (10+ km)
Ceiling: ceiling and visibility are OK
Clouds: unknown
Weather: no significant weather observed at this time

METAR text: OISS 212300Z 30004KT CAVOK 29/M01 Q1012 A2989
Conditions at: OISS (SHIRAZ (CIV/AFB), IR) observed 2300 UTC 21 July 2019
Temperature: 29.0°C (84°F)
Dewpoint: -1.0°C (30°F) [RH = 14%]
Pressure (altimeter): 29.88 inches Hg (1012.0 mb)
Winds: from the WNW (300 degrees) at 5 MPH (4 knots; 2.1 m/s)
Visibility: 6 or more miles (10+ km)
Ceiling: ceiling and visibility are OK
Clouds: unknown
Weather: no significant weather observed at this time

METAR text: OISS 212250Z 30004KT CAVOK 29/M01 Q1012 A2989
Conditions at: OISS (SHIRAZ (CIV/AFB), IR) observed 2250 UTC 21 July 2019
Temperature: 29.0°C (84°F)
Dewpoint: -1.0°C (30°F) [RH = 14%]
Pressure (altimeter): 29.88 inches Hg (1012.0 mb)
Winds: from the WNW (300 degrees) at 5 MPH (4 knots; 2.1 m/s)
Visibility: 6 or more miles (10+ km)
Ceiling: ceiling and visibility are OK
Clouds: unknown
Weather: no significant weather observed at this time

METAR text: OISS 212230Z 28004KT CAVOK 27/M01 Q1012 A2989
Conditions at: OISS (SHIRAZ (CIV/AFB), IR) observed 2230 UTC 21 July 2019
Temperature: 27.0°C (81°F)
Dewpoint: -1.0°C (30°F) [RH = 16%]
Pressure (altimeter): 29.88 inches Hg (1012.0 mb)
Winds: from the W (280 degrees) at 5 MPH (4 knots; 2.1 m/s)
Visibility: 6 or more miles (10+ km)
Ceiling: ceiling and visibility are OK
Clouds: unknown
Weather: no significant weather observed at this time

METAR text: OISS 212220Z 28004KT CAVOK 27/M01 Q1012 A2989
Conditions at: OISS (SHIRAZ (CIV/AFB), IR) observed 2220 UTC 21 July 2019
Temperature: 27.0°C (81°F)
Dewpoint: -1.0°C (30°F) [RH = 16%]
Pressure (altimeter): 29.88 inches Hg (1012.0 mb)
Winds: from the W (280 degrees) at 5 MPH (4 knots; 2.1 m/s)
Visibility: 6 or more miles (10+ km)
Ceiling: ceiling and visibility are OK
Clouds: unknown
Weather: no significant weather observed at this time

Forecast for: OISS (SHIRAZ (CIV/AFB), IR)
Text: TAF OISS 230530Z 2306/2412 33006KT 6000 FEW045 SCT100
Forecast period: 0600 UTC 23 July 2019 to 1200 UTC 24 July 2019
Forecast type: FROM: standard forecast or significant change
Winds: from the NNW (330 degrees) at 7 MPH (6 knots; 3.1 m/s)
Visibility: 4 miles (6 km)
Ceiling: at least 12,000 feet AGL
Clouds: few clouds at 4500 feet AGL
scattered clouds at 10000 feet AGL
Weather: no significant weather forecast for this period
Text: TEMPO 2309/2315 FEW035CB SCT040 BKN100
Forecast period: 0900 to 1500 UTC 23 July 2019
Forecast type: TEMPORARY: The following changes expected for less than half the time period
Visibility: missing
Ceiling: 10000 feet AGL
Clouds: few clouds at 3500 feet AGL
scattered clouds at 4000 feet AGL
broken clouds at 10000 feet AGL
Weather: no significant weather forecast for this period
Text: TEMPO 2318/2322 28012G22KT
Forecast period: 1800 to 2200 UTC 23 July 2019
Forecast type: TEMPORARY: The following changes expected for less than half the time period
Winds: from the W (280 degrees) at 14 MPH (12 knots; 6.2 m/s)
gusting to 25 MPH (22 knots; 11.3 m/s)
Visibility: missing
Ceiling: unknown
Clouds: missing
Weather: no significant weather forecast for this period
Text: TEMPO 2409/2412 FEW035CB SCT040 SCT100
Forecast period: 0900 to 1200 UTC 24 July 2019
Forecast type: TEMPORARY: The following changes expected for less than half the time period
Visibility: missing
Ceiling: at least 12,000 feet AGL
Clouds: few clouds at 3500 feet AGL
scattered clouds at 4000 feet AGL
scattered clouds at 10000 feet AGL
Weather: no significant weather forecast for this period